Tracking 17155 objects as of 29-July-2015
HD Live streaming from Space Station

BEIDOU 1B

Track BEIDOU 1B now!
BEIDOU 1B is classified as:


NORAD ID: 26643
Int'l Code: 2000-082A
Perigee: 35,736.9 km
Apogee: 36,425.8 km
Inclination: 6.9 °
Period: 1,450.8 minutes
Semi major axis: 42452 km
RCS: 0.1238 m2 (medium)
Launch date: December 20, 2000
Source: People's Republic of China (PRC)

Space-bsaed navigation and positioning system to improve accuracy of weapons and situational awareness of military forces.
Your satellite tracking list
Your tracking list is empty





NASA's NSSDC Master Catalog

Two Line Element Set (TLE):
1 26643U 00082A   15209.50052249 -.00000083  00000-0  00000+0 0  9996
2 26643 006.8591 053.9021 0081133 352.7693 268.5662 00.99254543 53377

Source of the keplerian elements: AFSPC

N2YO: 260